#timestamp,LO_Frequency,Hit,StdDev 
1679922015.4,286046992.5,N
1679922035.2,286046990.3,N
1679922055.0,286046988.7,N
1679922055.9,286046988.7,N
1679922075.8,286046987.8,N
1679922095.6,286046984.5,N
1679922115.4,286046978.9,N
1679922135.3,286046976.4,N
1679922155.1,286046974.9,N
1679922175.9,286046971.5,N
1679922195.7,286046966.4,N
1679922215.5,286046965.9,N
1679922235.4,286046963.0,N
1679922255.2,286046964.1,N
1679922275.0,286046960.4,N
1679922275.9,286046960.4,N
1679922295.8,286046962.2,N
1679922315.6,286046962.3,N
1679922335.5,286046960.1,N
1679922355.3,286046956.9,N
1679922375.1,286046958.4,N
1679922395.9,286046953.7,N
1679922415.7,286046951.8,N
1679922435.5,286046956.1,N
1679922455.4,286046957.8,N
1679922475.2,286046959.1,N
1679922495.1,286046956.9,N
1679922496.0,286046956.9,N
1679922515.8,286046955.9,Y
1679922535.6,286046984.2,P
1679922555.5,286046981.9,N
1679922575.3,286046978.3,P
1679922595.1,286046975.7,Y
1679922615.9,286046998.3,P
1679922635.7,286047001.2,N
1679922655.6,286046994.6,N
1679922675.4,286046990.9,N
1679922695.2,286046990.0,N
1679922715.1,286046988.9,N
1679922716.0,286046988.9,N
1679922735.8,286046991.6,N
1679922755.6,286046989.5,N
1679922775.5,286046987.9,N
1679922795.3,286046989.9,N
1679922815.2,286046992.9,N
1679922835.9,286046998.0,N
1679922855.7,286046999.3,N
1679922875.6,286046997.6,N
1679922895.4,286046995.9,N
1679922915.2,286046994.2,N
1679922935.1,286046988.7,N
1679922936.0,286046988.7,N
1679922955.8,286046984.0,Y
1679922975.7,286046992.3,P
1679922995.5,286046987.0,P
1679923015.3,286046986.3,P
1679923035.2,286046985.7,Y
1679923055.0,286047000.3,P
1679923055.9,286047000.3,N
1679923075.8,286047005.3,N
1679923095.6,286047004.4,N
1679923115.4,286047007.8,N
1679923135.3,286047006.6,N
1679923155.1,286047006.4,N
1679923175.8,286047003.1,N
1679923195.7,286047007.6,N
1679923215.5,286047009.5,N
1679923235.4,286047017.2,Y
1679923255.2,286047023.3,P
1679923275.0,286047029.2,N
1679923275.9,286047029.2,N
1679923295.8,286047032.5,Y
1679923315.6,286047014.2,P
1679923335.4,286047017.0,P
1679923355.3,286047020.4,P
1679923375.1,286047015.9,Y
1679923395.9,286046990.6,P
1679923415.7,286046987.0,N
1679923435.5,286046985.8,N
1679923455.4,286046988.2,N
1679923475.2,286046994.2,N
1679923495.1,286046994.0,N
1679923496.0,286046994.0,N
1679923515.8,286046996.4,N
1679923535.6,286046993.1,N
1679923555.5,286046993.7,N
1679923575.3,286046998.4,N
1679923595.2,286047004.5,N
1679923615.9,286047008.2,N
1679923635.7,286047018.5,N
1679923655.6,286047021.0,N
1679923675.4,286047021.3,N
1679923695.2,286047020.6,N
1679923715.1,286047021.6,N
1679923716.0,286047021.6,N
1679923735.8,286047019.5,N
1679923755.7,286047023.8,N
1679923775.5,286047029.6,N
1679923795.3,286047034.7,N
1679923815.2,286047030.2,N
1679923835.0,286047029.3,N
1679923835.9,286047029.3,N
1679923855.8,286047025.0,N
1679923875.6,286047022.6,N
1679923895.4,286047024.9,N
1679923915.3,286047034.5,N
1679923935.1,286047034.6,N
1679923955.8,286047035.8,N
1679923975.7,286047032.3,N
1679923995.5,286047029.4,N
1679924015.4,286047027.6,N
1679924035.2,286047026.7,N
1679924055.0,286047023.1,N
1679924055.9,286047023.1,N
1679924075.8,286047024.9,N
1679924095.6,286047025.1,N
1679924115.4,286047023.6,N
1679924135.3,286047019.6,N
1679924155.1,286047017.7,Y
1679924175.9,286046996.3,P
1679924195.7,286046994.4,N
1679924215.5,286046992.6,N
1679924235.4,286046992.2,N
1679924255.2,286046997.5,N
1679924275.0,286046995.9,N
1679924275.9,286046995.9,N
1679924295.8,286046994.5,N
1679924315.6,286046991.8,N
1679924335.5,286046989.0,N
1679924355.3,286046985.8,N
1679924375.1,286046981.4,N
1679924395.9,286046978.0,N
1679924415.7,286046978.2,N
1679924435.5,286046977.2,N
1679924455.4,286046972.5,N
1679924475.2,286046973.1,N
1679924495.0,286046971.1,N
1679924495.9,286046971.1,N
1679924515.8,286046971.0,N
1679924535.6,286046972.3,N
1679924555.5,286046969.7,N
1679924575.3,286046966.5,N
1679924595.1,286046963.1,N
1679924615.9,286046961.5,N
1679924635.7,286046957.2,Y
1679924655.5,286046968.1,P
1679924675.4,286046966.5,P
1679924695.2,286046970.4,P
1679924715.1,286046970.3,Y
1679924716.0,286046970.3,P
1679924735.8,286046996.4,P
1679924755.6,286046991.6,N
1679924775.5,286046988.9,N
1679924795.3,286046988.7,N
1679924815.1,286046995.6,N
1679924835.9,286047003.6,N
1679924855.7,286047003.0,N
1679924875.6,286047004.3,N
1679924895.4,286047005.4,N
1679924915.2,286047004.1,N
1679924935.1,286047006.6,N
1679924936.0,286047006.6,N
1679924955.8,286047008.0,N
1679924975.7,286047006.2,N
1679924995.5,286047008.7,N
1679925015.3,286047006.5,N
1679925035.2,286046999.8,N
1679925055.0,286047005.3,N
1679925055.9,286047005.3,N
1679925075.7,286047004.5,N
1679925095.6,286046998.5,N
1679925115.4,286046995.8,N
1679925135.3,286046992.2,N
1679925155.1,286046994.4,N
1679925156.0,286046994.4,N
1679925175.8,286046991.4,N
1679925195.7,286046989.7,N
1679925215.5,286046982.1,N
1679925235.3,286046975.9,N
1679925255.2,286046974.5,N
1679925275.0,286046976.6,N
1679925275.9,286046976.6,N
1679925295.8,286046975.8,N
1679925315.6,286046978.7,N
1679925335.4,286046981.5,N
1679925355.3,286046986.7,N
1679925375.1,286046987.5,N
1679925395.8,286046985.9,N
1679925415.7,286046986.7,N
1679925435.5,286046986.2,N
1679925455.4,286046980.3,N
1679925475.2,286046976.5,N
1679925495.0,286046987.9,N
1679925495.9,286046987.9,N
1679925515.8,286046992.6,N
1679925535.6,286046994.1,N
1679925555.4,286047000.8,N
1679925575.3,286047003.8,N
1679925595.1,286047008.9,N
